Regional Weather Roundup
Issued by NWS

Home | Current Version | Previous Version | Text Only | Print | Product List | Glossary On
Versions: 1 2 3 4 5 6 7 8 9 10 11 12 13 14 15 16 17 18 19 20 21 22 23 24 25 26 27 28 29 30 31 32 33 34 35 36 37 38 39 40 41 42 43 44 45 46 47 48 49 50
000
ASUS43 KDMX 260106
RWRIA

WEATHER ROUNDUP FOR IOWA
NATIONAL WEATHER SERVICE DES MOINES IA
800 PM CDT TUE JUL 25 2017

NOTE: "FAIR" INDICATES FEW OR NO CLOUDS BELOW 12,000 FEET WITH NO
SIGNIFICANT WEATHER AND/OR OBSTRUCTIONS TO VISIBILITY.

* - THESE STATIONS ARE NOT NWS STATIONS...THUS NOT UNDER NWS
QUALITY CONTROL.  THEY ALSO DO NOT REPORT WEATHER SUCH
AS PRECIPITATION OR FOG.

IAZ001>003-012>014-020>022-031>034-043>046-260200-
   NORTHWEST IOWA

CITY           SKY/WX    TMP DP  RH WIND       PRES   REMARKS
CARROLL *      CLOUDY    82  75  78 S10       29.96S HX  89
CHEROKEE *     CLOUDY    84  75  75 S7        29.92F HX  92
DENISON *      CLOUDY    84  75  74 S13       29.96S HX  92
ORANGE CITY *  CLOUDY    82  73  74 SE5       29.92S HX  88
SHELDON *      CLOUDY    82  73  74 S12       29.90S HX  88
SIOUX CITY     CLOUDY    89  70  53 S10       29.88F HX  94
SPENCER        CLOUDY    83  74  74 S8        29.94S HX  89
STORM LAKE *   CLOUDY    82  73  74 S10       29.94F HX  88
$$

IAZ055>058-069>071-079>083-090>094-260200-
   SOUTHWEST IOWA

CITY           SKY/WX    TMP DP  RH WIND       PRES   REMARKS
ATLANTIC *     CLOUDY    86  75  70 S9        29.97S HX  95
AUDUBON *      CLOUDY    84  75  74 S8        29.98F HX  92
CLARINDA *     CLEAR     86  77  74 SE7       30.00S HX  97
COUNCIL BLFS * PTCLDY    86  75  70 SE12      29.96R HX  95
CRESTON *      CLEAR     84  75  74 S10       30.03S HX  92
HARLAN  *      CLOUDY    84  77  79 S8        29.99S HX  94
LAMONI         CLEAR     84  75  74 SE8       30.03R HX  92
RED OAK *      CLOUDY    86  77  74 SE9G15    29.97S HX  97
SHENANDOAH *   CLOUDY    86  75  70 SE9       29.97R HX  95
$$

IAZ047>049-059>061-072>074-084-260200-
   CENTRAL IOWA

CITY           SKY/WX    TMP DP  RH WIND       PRES   REMARKS
AMES           MOCLDY    84  74  71 SE9       29.99S HX  91
ANKENY *       PTCLDY    86  72  62 S10G16    30.00R HX  92
BOONE *        CLOUDY    82  75  78 SE9       29.98S HX  89
CHARITON *     CLEAR     86  72  62 S10       30.03R HX  92
DES MOINES     CLOUDY    89  71  55 S10       29.99R HX  95
GRINNELL*      PTCLDY    81  68  64 SE9       30.04S HX  84
KNOXVILLE *    CLEAR     84  70  61 S9        30.01S HX  88
MARSHALLTOWN   PTCLDY    82  70  66 SE13      30.00F HX  86
NEWTON *       CLOUDY    81  72  74 SE8       30.02S HX  84
PELLA *        CLEAR     85  68  56 SE7       30.03S HX  88
PERRY *          N/A     82  77  84 S5        29.99R HX  90
$$

IAZ004>006-015-016-023>025-035-036-260200-
   NORTH CENTRAL IOWA

CITY           SKY/WX    TMP DP  RH WIND       PRES   REMARKS
ALGONA *       CLOUDY    84  73  70 S9        29.97R HX  91
CLARION *      CLOUDY    82  73  74 S13       29.98S HX  88
ESTHERVILLE    CLOUDY    79  73  82 SE5       29.96R HX  82
FORT DODGE *   CLOUDY    84  72  65 S9        29.97S HX  89
MASON CITY     CLOUDY    78  71  79 SE9       30.02R HX  80
FOREST CITY *    N/A     79  73  83 SE7       30.00R HX  82
WEBSTER CITY * CLOUDY    82  73  74 SE9       29.96S HX  88
IOWA FALLS *     N/A     81  72  73 SE8       30.02R HX  85
$$

IAZ007>011-017>019-026>030-037>042-050>054-066-260200-
   NORTHEAST IOWA

CITY           SKY/WX    TMP DP  RH WIND       PRES   REMARKS
CHARLES CITY * CLOUDY    77  72  83 S8        30.03R
DECORAH *      CLOUDY    75  68  78 S6        30.04R
DUBUQUE        CLEAR     73  67  81 S9        30.08S
MONTICELLO *   CLEAR     75  70  83 SE7       30.06S
OELWEIN *      CLOUDY    75  72  88 S7        30.05R
$$

IAZ064-065-067-068-078-260200-
   EAST CENTRAL IOWA

CITY           SKY/WX    TMP DP  RH WIND       PRES   REMARKS
DAVENPORT      CLEAR     76  67  73 SE6       30.10R
MT. PLEASANT * CLEAR     78  68  70 SE6       30.07S HX  81
MUSCATINE *    CLEAR     79  68  69 SE5       30.06S HX  81
QUAD CITIES    CLEAR     78  67  68 SE3       30.08R HX  80
$$

IAZ062-063-075>077-085>089-095>099-260200-
   SOUTHEAST IOWA

CITY           SKY/WX    TMP DP  RH WIND       PRES   REMARKS
BURLINGTON     CLEAR     80  71  74 SE6       30.07R HX  84
FAIRFIELD *    CLEAR     82  66  57 SE10      30.05S HX  85
FORT MADISON * CLEAR     81  72  74 SE5       30.08R HX  84
KEOKUK *       CLEAR     82  70  65 SE7       30.06R HX  86
OSKALOOSA *      N/A     83  66  57 S7        30.04S HX  85
CENTERVILLE *    N/A     82  70  65 SE3       30.06S HX  86
OTTUMWA        CLOUDY    85  65  51 S10       30.04R HX  86
WASHINGTON *   CLOUDY    79  72  78 SE6       30.07R HX  82
$$

ABBREVIATIONS USED IN REMARKS
   TC - TEMPERATURES IN CELSIUS
  WCI - WIND CHILL INDEX
   HX - HEAT INDEX
  VSB - VISIBILITY
$$





USA.gov is the U.S. government's official web portal to all federal, state and local government web resources and services.